EW7376 Weather Reports


Display with metric or nautical units.
time (UTC)temp
F
wind
direction
speed
MPH
gust
MPH
rain 1hr
in
rain 24hr
in
rain mn
in
humidity
%
barometer
mb
20260506210012 61 43 0.0 0.0 0.00 0.00 0.00 67 1016.0
20260506204506 60 32 0.0 0.0 0.00 0.00 0.00 68 1015.9
20260506203051 60 333 0.0 0.0 0.00 0.00 0.00 69 1015.7
20260506201543 60 22 0.0 0.0 0.00 0.00 0.00 68 1015.7
20260506200034 59 55 0.0 0.0 0.00 0.00 0.00 69 1015.7
20260506194530 59 42 0.0 0.0 0.00 0.00 0.00 70 1015.5
20260506193029 58 360 0.0 0.0 0.00 0.00 0.00 70 1015.1
20260506191534 59 315 0.0 0.0 0.00 0.00 0.00 69 1015.1
20260506190026 59 5 0.0 0.0 0.00 0.00 0.00 69 1014.9
20260506184530 59 72 0.0 0.0 0.00 0.00 0.00 69 1015.2
20260506183022 59 341 0.0 0.0 0.00 0.00 0.00 69 1015.3
20260506181519 58 312 0.0 0.0 0.00 0.00 0.00 70 1015.4
20260506180024 57 73 0.0 0.0 0.00 0.00 0.00 71 1015.2
20260506174556 56 9 0.0 0.0 0.00 0.00 0.00 71 1015.6
20260506173054 56 321 0.0 0.0 0.00 0.00 0.00 69 1016.1
20260506171552 57 334 0.0 0.0 0.00 0.00 0.00 69 1016.7
20260506170040 56 78 0.0 0.0 0.00 0.00 0.00 70 1016.9
20260506164535 55 63 0.0 0.0 0.00 0.00 0.00 72 1016.9
20260506163036 54 355 0.0 0.0 0.00 0.00 0.00 72 1016.4
20260506161528 54 329 0.0 0.0 0.00 0.00 0.00 72 1016.5
20260506160025 54 5 0.0 0.0 0.00 0.00 0.00 71 1016.6
20260506154518 53 338 0.0 0.0 0.00 0.00 0.00 72 1016.3
20260506153017 53 42 0.0 0.0 0.00 0.00 0.00 72 1016.3
20260506151600 53 317 0.0 0.0 0.00 0.00 0.00 73 1016.3
20260506150059 53 338 0.0 0.0 0.00 0.00 0.00 72 1016.6
20260506144555 53 336 0.0 0.0 0.00 0.00 0.00 72 1016.1
20260506143038 53 101 0.0 0.0 0.00 0.00 0.00 72 1015.5
20260506141535 53 20 0.0 0.0 0.00 0.00 0.00 73 1015.6
20260506140034 52 46 0.0 0.0 0.00 0.00 0.00 73 1015.7
20260506134530 52 355 0.0 0.0 0.00 0.00 0.00 73 1015.4
20260506133041 52 17 0.0 0.0 0.00 0.00 0.00 74 1015.0
20260506131530 52 5 0.0 0.0 0.00 0.00 0.00 74 1014.4
20260506130024 51 5 0.0 0.0 0.00 0.00 0.00 74 1014.3
20260506124511 51 360 0.0 0.0 0.00 0.00 0.00 74 1014.4
20260506123010 51 344 0.0 0.0 0.00 0.00 0.00 74 1013.9
20260506121510 51 5 0.0 0.0 0.00 0.00 0.00 74 1014.0
20260506120008 51 319 0.0 0.0 0.00 0.00 0.00 74 1013.7
20260506114508 51 33 0.0 0.0 0.00 0.00 0.00 75 1013.8
20260506113009 51 346 0.0 0.0 0.00 0.00 0.00 75 1013.6
20260506111505 51 330 0.0 0.0 0.00 0.00 0.00 76 1013.4
20260506110004 51 321 0.0 0.0 0.00 0.00 0.00 77 1013.4
20260506104554 51 17 0.0 0.0 0.00 0.00 0.00 77 1013.0
20260506103043 51 360 0.0 0.0 0.00 0.00 0.00 77 1013.0
20260506101538 51 335 0.0 0.0 0.00 0.00 0.00 78 1012.7
20260506100032 51 311 0.0 0.0 0.00 0.00 0.00 79 1012.7
20260506094529 51 323 0.0 0.0 0.00 0.00 0.00 81 1012.7
20260506093026 51 306 0.0 0.0 0.00 0.00 0.00 81 1012.6
20260506091524 51 315 0.0 0.0 0.00 0.00 0.00 82 1012.4
20260506090022 51 360 0.0 0.0 0.00 0.00 0.00 82 1012.0
20260506084529 51 348 0.0 0.0 0.00 0.00 0.00 82 1011.9
20260506083018 51 318 0.0 0.0 0.00 0.00 0.00 82 1011.5
20260506081505 51 329 0.0 0.0 0.00 0.00 0.00 83 1011.2
20260506073003 50 336 0.0 0.0 0.00 0.00 0.00 83 1010.8
20260506071502 50 314 0.0 0.0 0.00 0.00 0.00 83 1011.2
20260506061548 51 325 0.0 0.0 0.00 0.00 0.00 82 1010.5
20260506044536 53 360 0.0 0.0 0.00 0.00 0.00 78 1010.9
20260506043036 53 43 0.0 0.0 0.00 0.00 0.00 78 1010.9
20260506041516 53 32 0.0 0.0 0.00 0.00 0.00 78 1010.9
20260506040032 53 308 0.0 0.0 0.00 0.00 0.00 79 1010.9
20260506034601 53 343 0.0 0.0 0.00 0.00 0.00 80 1010.6
20260506033058 53 328 0.0 0.0 0.00 0.00 0.00 80 1010.3
20260506031556 54 335 0.0 0.0 0.00 0.00 0.00 80 1009.8
20260506030057 54 340 0.0 0.0 0.00 0.00 0.00 79 1009.6
20260506024557 54 316 0.0 0.0 0.00 0.00 0.00 79 1009.7
20260506023057 55 319 0.0 0.0 0.00 0.00 0.00 80 1009.5
20260506021555 55 355 0.0 0.0 0.00 0.00 0.00 81 1008.9
20260506020048 55 321 0.0 0.0 0.00 0.00 0.00 81 1008.5
20260506014545 55 336 0.0 0.0 0.00 0.00 0.00 81 1008.3
20260506013040 55 319 0.0 0.0 0.00 0.00 0.00 81 1007.8
20260506011543 56 322 0.0 0.0 0.00 0.00 0.00 82 1007.5
20260506010050 56 296 0.0 0.0 0.00 0.00 0.00 83 1007.7
20260506004546 56 306 0.0 0.0 0.00 0.00 0.00 83 1007.3
20260506003035 57 318 0.0 0.0 0.00 0.00 0.00 83 1007.3
20260506001515 58 309 0.0 0.0 0.00 0.00 0.00 83 1007.1
20260506000013 58 325 0.0 0.0 0.00 0.00 0.00 82 1007.1
20260505234529 59 318 0.0 0.0 0.00 0.00 0.00 82 1006.6
20260505233008 60 321 0.0 0.0 0.00 0.00 0.00 81 1006.7
20260505231503 60 313 0.0 0.0 0.00 0.00 0.00 81 1006.8
20260505224557 62 322 0.0 0.0 0.00 0.00 0.00 80 1006.5
20260505223052 63 306 0.0 0.0 0.00 0.00 0.00 78 1006.2
20260505221536 65 309 0.0 0.0 0.00 0.00 0.00 77 1005.8
20260505220033 65 283 0.0 0.0 0.00 0.00 0.00 77 1005.5
20260505214557 65 300 0.0 0.0 0.00 0.00 0.00 76 1005.3
20260505213030 66 278 0.0 0.0 0.00 0.00 0.00 76 1005.1
20260505211531 66 333 0.0 0.0 0.00 0.00 0.00 76 1004.9